Погода в Майске

Погода в Майске : погода сейчас, прогноз погоды и архив. Всё, что Вы хотите узнать о погоде в Майске!

Хотите узнать прогноз погоды в Майске? Тогда Вам сюда: Погода в Майске

Поиск расширенной информации на нашем сайте:

Другие новости

Новости СМИ2

Главная страница сайта

Новости сайта

03.07.2017

Напоминаем, что на нашем специализированном сайте Метеоцентр.Азия вы можете получить высокодетализированные автоматические прогнозы погоды по пунктам России, СНГ и мира в авиационном формате (включающие направление и скорость ветра, видимость, явления погоды, количество и форму облачности, нижнюю и верхнюю границу облачности).


Погода в Майске - сегодня

Время (UTC), дата Ветер
(°,м/с) 
Видим.   Явления Облачность Т
(°С)
Тd
(°С)
f(%) Тe
(°С)
Pmin
(гПа)
dP
(гПа)
Po
(мм)
O2
(г/м3)
Тmin Tmax R s Состояние
почвы
12 16.04.18 320 (СЗ) 3{10}  10 км  слаб. крупа{ливн. осадки}  10/10 600 м кучево-дожд. 
[Cb cap]
-1.1 -3 87 -3  1001.4  2.8  742  300    +5.1     
15 16.04.18 250 (З) 20000 м    3/3 600 м 
[Sc]
-3.3 -4.4 92 -4  1003.2  1.6  743  303           
18 16.04.18 230 (ЮЗ) 20000 м    ясно 
-5.6 -7.4 87 -5  1004.2  0.9  744  307           
00 17.04.18 290 (З) 10 км  слаб. ливневой снег  10/10 600 м кучево-дожд. 
[Cb cap]
-5.2 -6.6 90 -5  1007.2  746  307  -6.9    0.0  42  неравномерный
сухой снег
100% 
12 17.04.18 320 (СЗ) 3{10}  20000 м  {ливн. осадки}  8/8 600 м 
-4.2 -12.1 54 -6  1015.5  1.4  752  309    -1.7  0.0     
15 17.04.18 тихо ()   20000 м    6/6 600 м 
[Sc]
-6.9 -12.6 64 -7  1017.7  754  313           
18 17.04.18 250 (З) 20000 м    8/8 600 м 
[Sc]
-11.8 -13.1 90 -12  1019.4  1.4  755  319           
21 17.04.18 270 (З) 20000 м    ясно 
-13.7 -15 90 -14  1020.9  1.4  756  322           
00 18.04.18 250 (З) 20000 м    ясно 
-15.7 -17.6 85 -16  1022.1  1.2  757  325  -15.8      41  неравномерный
мокрый или
старый снег
100% 
03 18.04.18 320 (СЗ) 20000 м    ясно 
-8.1 -16.2 52 -10  1023.3  1.6  758  316  -15.9         
06 18.04.18 270 (З) 20000 м    3/3 600 м 
[Sc diur, vesp]
-3.9 -15 42 -5  1023.7  0.6  758  311           
09 18.04.18 230 (ЮЗ) 20000 м    3/3 600 м 
[Sc diur, vesp]
-1.6 -15.4 34 -4  1023  -0.7  758  308           
12 18.04.18 250 (З) 20000 м    4/4 600 м 
[Sc]
-1 -15.4 33 -2  1022.2  -0.8  757  307    -0.1       
15 18.04.18 тихо ()   20000 м    ясно 
-5.8 -16.1 44 -6  1022.1  -0.3  757  313           
18 18.04.18 тихо ()   20000 м    ясно 
-10 -13.6 75 -10  1021.9  -0.4  757  318           
21 18.04.18 140 (ЮВ) 20000 м    ясно 
-13.3 -14.6 90 -13  1021.1  -0.9  756  321           
00 19.04.18 140 (ЮВ) 20000 м    4/0 верхняя 
[Ci fib]
-15 -16.3 90 -15  1020.4  -0.8  755  323  -15.5      40  неравномерный
сухой снег
100% 
03 19.04.18 250 (З) 20000 м    10/0 верхняя 
[Ci fib]
-1.2 -13.3 39 -1  1018.8  -0.9  755  307           
06 19.04.18 200 (Ю) 20000 м    10/0 верхняя 
[Cs]
+1.5 -13.5 32 1017.2  -1.5  753  303           
09 19.04.18 230 (ЮЗ) 3{10}  20000 м    10/0 верхняя 
[Cs]
+2.7 -13.5 29 +1  1015.3  1.7  752  301           
12 19.04.18 200 (Ю) 3{10}  20000 м    10/0 верхняя 
[Cs]
+2.6 -13.1 30 +1  1013.8  -1.5  751  301    +3.2       
15 19.04.18 180 (Ю) 2{10}  20000 м    10/0 верхняя 
[Cs]
+0.9 -12.8 35 1013.4  -0.5  751  303           
18 19.04.18 180 (Ю) 20000 м    ясно 
-0.6 -10.9 46 -1  1012.8  -0.7  750  304           
21 19.04.18 200 (Ю) 20000 м    ясно 
-1.1 -8.1 59 -3  1011  -1.7  749  304           
00 20.04.18 200 (Ю) 20000 м    10/10 600 м 
[Sc]
-0.2 -6 65 -2  1009.5  -1.5  748  302  -1.9      40  неравномерный
сухой снег
100% 
Время (UTC), дата Ветер
(°,м/с) 
Видим.   Явления Облачность Т
(°С)
Тd
(°С)
f(%) Тe
(°С)
Pmin
(гПа)
dP
(гПа)
Po
(мм)
O2
(г/м3)
Тmin Tmax R s Состояние
почвы

Для получения пояснительной информации подведите курсор к названию столбца.

ПОГОДА в Майске - архив

Всё, что Вы хотите узнать о погоде в Майске - удобно и подробно!

Выберите нужную дату (начиная с 1 января 2015* года) и нажмите кнопку "Найти".
Будут отображены архивные сводки погоды по пункту Майск, начиная с указанной даты.


Отображать данные в формате CSV (для использования в таблицах Excel)


Внимание! Наш архив погоды предназначен исключительно для личного некоммерческого использования в познавательных целях. Если Вам необходимы официальные справки о состоянии погоды (для производственных, юридических, коммерческих и т.п. целей), обращайтесь в органы Росгидромета.

*Примечание: данная дата относится к архиву по метеостанциям СССР (Россия, СНГ, Балтия).
Архив по метеостанциям Зарубежной Европы и Азии (кроме Китая) хранится 10 дней, по другим регионам земного шара (Китай, Африка, Америка, Австралия, Океания) - 1 день.

Майск - район местоположения метеостанции


Название, широта, долгота, высота метеостанции:
Майск 57.8°ш. 77.3°д. 100 м над ур. моря [Российская Федерация]

Дополнительная информация

В oтличие oт бoльшинства пoгoдных сайтoв мы публикуем пoдрoбную метеoинфoрмацию в детальнoм прoфессиoнальнoм фoрмате.

Характеристики температуры и влажнoсти вoздуха измеряются на высoте 2 м в тени вдали oт зданий и деревьев.
Скoрoсть ветра измеряется на высoте 10 м (на урoвне рoста челoвека скoрoсть ветра ниже в 1.5-2 раза). Если метеoстанция нахoдится в гoрoде или в лесу, тo скoрoсть ветра занижена на 2-4 м/с пo сравнению с oткрытым местoм. Скoрoсть ветра над акватoриями крупных рек и oзёр, а также на вершинах хoлмoв на 2-5 м/с выше, чем в oбычных услoвиях.
Атмoсфернoе давление в разных тoчках местнoсти мoжет значительнo oтличаться oт давления на метеoстанции, в зависимoсти oт услoвий рельефа (при пoдъёме на 10 м давление пoнижается примернo на 1 мм рт.ст.).